Content
SEND FEEDBACK

Daily
Averages
Monthly
Summary
United States of America

KIRLEY, SOUTH DAKOTA


Home > North America > United States > South Dakota
Elevation: 2240 feet     Latitude: 44 32N     Longitude: 101 07W

WEATHER
 
SELECT A DAY
Number of Records: 159,111;   Date Range: 1/1/95 - 7/26/14
 
SHARE

PRINT THIS DATA

[ ← Previous Day ]
WEATHER ALMANAC - JANUARY 31, 2013
[ Next Day → ]
[ °C ]   °F
Weather ElementAverageHighLow
Temperature3.3 °F10 °F (12:55 am)-6 °F (7:55 am)
Dewpoint-5 °F5 °F (12:55 am)-15 °F (7:55 am)
Humidity68.9 %80 % (12:55 am)58 % (2:55 pm)
Barometer30.29 in30.49 in (10:55 am)29.99 in (1:20 am)
Wind Speed9.4 mph20.7 mph (5:55 am)
Wind Gust26.5 mph (5:53 am)
Weather ElementAverage
Visibility8.4 mi
Wind DirectionWSW (237.2 °)

Weather ElementTotal
Precipitation0.02 in
Heating Degree Days63 (Base 65)
Averaged from 29 records on January 31, 2013
WEATHER CONDITIONS BREAKOUT
WIND DIRECTION BREAKOUT
WEATHER BY HOUR - JANUARY 31, 2013
[ °C ]   °F
Local TimeTemperatureDewpointHumidityBarometerVisibilityWind DirectionWind SpeedGust SpeedPrecipitationEventsConditions
12:55 AM10.0 °F5.0 °F80 %30.09 in2.0 miNorth (10°)8.1 mph0.01 inSnowLight Snow
1:20 AM8.6 °F3.2 °F79 %29.99 in3.0 miNorth (350°)4.6 mph0.00 inSnowLight Snow
1:35 AM8.6 °F3.2 °F79 %30.00 in3.0 miNorth (360°)4.6 mph0.00 inSnowLight Snow
1:43 AM8.6 °F3.2 °F79 %30.00 in2.0 miNorth (360°)5.8 mph0.00 inSnowLight Snow
1:55 AM8.1 °F3.0 °F80 %30.13 in2.0 miNorth (350°)8.1 mph0.01 inSnowLight Snow
2:12 AM6.8 °F1.4 °F79 %30.02 in3.0 miNNW (340°)18.4 mph23.0 mph0.00 inSnowLight Snow
2:55 AM5.0 °F-2.0 °F73 %30.17 in9.0 miNorth (350°)12.7 mph0.00 inOvercast
3:55 AM5.0 °F-2.0 °F73 %30.19 in10.0 miNW (320°)13.8 mph0.00 inOvercast
4:55 AM1.9 °F-5.1 °F72 %30.25 in10.0 miNNW (340°)15.0 mphMostly Cloudy
5:53 AM-0.4 °F-9.4 °F66 %30.16 in10.0 miNNW (340°)19.6 mph26.5 mphMostly Cloudy
5:55 AM-0.9 °F-9.0 °F69 %30.31 in10.0 miNNW (340°)20.7 mph26.5 mphScattered Clouds
6:55 AM-4.0 °F-13.0 °F65 %30.36 in10.0 miNW (320°)18.4 mph23.0 mphClear
7:55 AM-6.0 °F-15.0 °F65 %30.42 in10.0 miNNW (340°)15.0 mphClear
8:55 AM-4.0 °F-14.1 °F62 %30.45 in10.0 miNW (310°)17.3 mphClear
9:55 AM-2.9 °F-13.0 °F62 %30.48 in10.0 miNW (320°)17.3 mph20.7 mphClear
10:55 AM-0.9 °F-11.9 °F60 %30.49 in10.0 miNW (310°)12.7 mphClear
11:55 AM1.0 °F-9.9 °F60 %30.45 in10.0 miNW (320°)13.8 mphClear
12:55 PM1.9 °F-9.0 °F60 %30.43 in10.0 miNW (310°)15.0 mphClear
1:55 PM1.9 °F-9.0 °F60 %30.41 in10.0 miNW (320°)10.4 mphClear
2:55 PM3.9 °F-8.0 °F58 %30.41 in10.0 miNNW (330°)8.1 mphClear
3:55 PM3.0 °F-7.1 °F63 %30.40 in10.0 miWNW (300°)5.8 mphPartly Cloudy
4:55 PM3.0 °F-7.1 °F63 %30.39 in10.0 miCalmPartly Cloudy
5:55 PM3.0 °F-6.0 °F66 %30.40 in10.0 miCalmOvercast
6:55 PM3.0 °F-5.1 °F69 %30.40 in10.0 miCalmOvercast
7:55 PM3.9 °F-5.1 °F66 %30.39 in10.0 miSSE (150°)3.5 mphOvercast
8:55 PM5.0 °F-2.0 °F73 %30.37 in10.0 miCalmOvercast
9:55 PM6.1 °F-0.9 °F73 %30.34 in10.0 miEast (90°)3.5 mphOvercast
10:55 PM7.0 °F0.0 °F73 %30.32 in10.0 miCalmOvercast
11:55 PM8.1 °F0.0 °F70 %30.29 in10.0 miCalmOvercast
Hourly data recorded from KPHP, located miles away from Kirley, South Dakota







STORIES FROM OUR PARTNERS